Regional Weather Roundup
Issued by NWS

Home | Current Version | Previous Version | Graphics & Text | Print | Product List | Glossary On
Versions: 1 2 3 4 5 6 7 8 9 10 11 12 13 14 15 16 17 18 19 20 21 22 23 24 25 26 27
000
ASUS45 KBOU 222107
RWRCO

WEATHER ROUNDUP FOR COLORADO
NATIONAL WEATHER SERVICE DENVER/BOULDER CO
300 PM MDT SUN OCT 22 2017

NOTE: "FAIR" INDICATES FEW OR NO CLOUDS BELOW 12000 FEET WITH NO
SIGNIFICANT WEATHER AND/OR OBSTRUCTIONS TO VISIBILITY.

COZ001>005-013-030-031-222200-
...NORTHWEST COLORADO...

CITY           SKY/WX    TMP DP  RH WIND       PRES   REMARKS
CRAIG          FAIR      60  29  30 SW13G22   30.33F
HAYDEN         FAIR      54  28  36 W14       30.36F
MEEKER         FAIR      59  28  30 SW8       30.35F
RABBIT EARS PA FAIR      34  30  86 W9G18     30.43F WCI  26
STEAMBOAT SPGS FAIR      51  27  40 SW3       30.36S
WALDEN         NOT AVBL
$$

COZ006>008-011-222200-
...WEST CENTRAL VALLEYS...

CITY           SKY/WX    TMP DP  RH WIND       PRES   REMARKS
GRAND JUNCTION FAIR      61  17  18 NW6       30.37F
MONTROSE       FAIR      59  25  27 CALM      30.40F
EAGLE          FAIR      57  25  29 SW17      30.39S
RIFLE          FAIR      57  21  24 VRB3      30.38F
DELTA          FAIR      64  19  18 CALM      30.38F
NUCLA          FAIR      61  21  21 W8        30.44F
$$

COZ017>023-064>068-222200-
...SOUTHWEST COLORADO...

CITY           SKY/WX    TMP DP  RH WIND       PRES   REMARKS
DURANGO        FAIR      60  18  19 S12       30.39F
CORTEZ         FAIR      64  15  15 W16       30.40S
PAGOSA SPRINGS FAIR      57   9  14 W8        30.42F
TELLURIDE      FAIR      56  24  29 W12G18    30.52R
WOLF CREEK PAS FAIR      43  16  33 SW6       30.62S
$$

COZ009-010-012-014-032>034-037-058>063-222200-
...CENTRAL COLORADO...

CITY           SKY/WX    TMP DP  RH WIND       PRES   REMARKS
ASPEN          FAIR      54  26  34 NW7       30.42S
BUENA VISTA    FAIR      62  12  14 NW16G24   30.30S
COPPER MTN     FAIR      37  21  52 NW3G16    30.55R
BERTHOUD PASS  FAIR      30  21  69 NW37G61   30.47R WCI  14
COTTONWOOD PAS FAIR      59   9  13 SW22G35   30.40S
GUNNISON       FAIR      57  25  29 SW16G23   30.39F
KREMMLING      FAIR      61  21  21 SW9       30.37F
LEADVILLE      FAIR      46  16  30 NW17G23   30.46R
MONARCH PASS   FAIR      36  21  55 W36       30.63S
SALIDA         FAIR      65  16  15 SW13G24   30.37F
SUNLIGHT       FAIR      37  27  65 SW8       30.56S
WILKERSON PASS FAIR      46  14  27 W5        30.48R
$$

COZ069>075-222200-
...SAN LUIS VALLEY/SANGRE DE CRISTO MOUNTAINS...

CITY           SKY/WX    TMP DP  RH WIND       PRES   REMARKS
ALAMOSA        FAIR      57  14  18 CALM      30.37F
DEL NORTE      FAIR      56  16  21 E9        30.38F
LA VETA PASS   FAIR      46  19  34 S32G44    30.50S
SAGUACHE       FAIR      55  19  24 S3        30.39S
$$

COZ035-036-038>040-222200-
...NORTHERN COLORADO FRONT RANGE...

CITY           SKY/WX    TMP DP  RH WIND       PRES   REMARKS
DENVER INTL AP PTSUNNY   67  23  19 W16G25    30.12R
DMNS CITY PARK   N/A     65  15  14 N10G18    30.12S
AURORA         PTSUNNY   65  23  20 W17G24    30.14R
FRONT RANGE AP PTSUNNY   68  28  22 W14G21    30.14S
ERIE MUNI ARPT FAIR      69  21  16 W8G20     30.15S
BOULDER MUN AP FAIR      64  19  17 W23G33    30.09F
CENTENNIAL     PTSUNNY   66  19  16 NW17      30.15S
BROOMFIELD     PTSUNNY   63  23  22 W9        30.13F
FORT COLLINS   FAIR      68  29  23 S6        30.08F
LONGMONT       FAIR      70  28  21 SE5       30.09F
$$

COZ041-046-047-076>085-087-088-222200-
...PIKES PEAK/PALMER DIVIDE AND SOUTHERN FOOTHILLS...

CITY           SKY/WX    TMP DP  RH WIND       PRES   REMARKS
COLO. SPRINGS  PTSUNNY   65  24  21 S12       30.16F
A. F. ACADEMY  FAIR      64  22  20 S7        30.15F
SCHRIEVER AFB  FAIR      65  20  18 SW9       30.16F
CHEYENNE MTN   FAIR      59  23  25 S10       30.14F
ELLICOTT         N/A    N/A N/A N/A SW9       30.15F
FALCON         FAIR      64  19  18 S8G18     30.19F
FORT CARSON    FAIR      66  23  19 S7        30.14F
LIMON          FAIR      68  26  20 NW12      30.11F
MONUMENT HILL  FAIR      59  23  25 N12       30.21S
CANON CITY     FAIR      72  28  20 E3        30.10F
WALSENBURG     FAIR      72  23  16 W22G30    30.18S
TRINIDAD       FAIR      67  24  19 VRB5      30.18F
$$

COZ042>045-048>051-090-091-222200-
...NORTHEAST COLORADO...

CITY           SKY/WX    TMP DP  RH WIND       PRES   REMARKS
GREELEY ARPT   FAIR      68  29  23 S7        30.07F
AKRON          FAIR      67  23  19 W16       30.08F
BURLINGTON     FAIR      67  20  16 S17G24    30.09F
WRAY           NOT AVBL
YUMA           NOT AVBL
STERLING       NOT AVBL
HOLYOKE        FAIR      73  27  17 W16G25    30.05S
FORT MORGAN    FAIR      69  20  15 SW8       30.08F
$$

COZ086-089-092>099-222200-
...SOUTHEAST COLORADO...

CITY           SKY/WX    TMP DP  RH WIND       PRES   REMARKS
PUEBLO         FAIR      77  25  14 MISG      30.08F
LA JUNTA       FAIR      71  22  15 SW8       30.11F
LAMAR          FAIR      73  23  15 W13       30.09F
SPRINGFIELD      N/A     69  24  18 SW10      30.13F
$$




USA.gov is the U.S. government's official web portal to all federal, state and local government web resources and services.